Regional Weather Roundup
Issued by NWS

Home | Current Version | Previous Version | Text Only | Print | Product List | Glossary On
Versions: 1 2 3 4 5 6 7 8 9 10 11 12 13 14 15 16 17 18 19 20 21 22 23 24 25 26 27 28 29 30 31 32 33 34 35 36 37 38 39 40 41 42 43 44 45 46 47 48 49 50
000
ASUS42 KFFC 261010
RWRGA
WEATHER ROUNDUP FOR GEORGIA
NATIONAL WEATHER SERVICE PEACHTREE CITY GA
500 AM EST SUN FEB 26 2017

NOTE: "FAIR" INDICATES FEW OR NO CLOUDS BELOW 12,000 FEET WITH NO
SIGNIFICANT WEATHER AND/OR OBSTRUCTIONS TO VISIBILITY.

* = USE WITH CAUTION. THE STATIONS MARKED WITH AN ASTERISK MAY NOT
REPORT WEATHER SUCH AS PRECIPITATION, FOG, OR THUNDER AND ARE NOT
QUALITY CONTROLLED BY NWS.

THE REMARK "TC" DENOTES TEMPERATURE READING IN DEGREES CELSIUS.

GAZ001>058-261100-
NORTH GEORGIA

CITY           SKY/WX    TMP DP  RH WIND       PRES   REMARKS
ATLANTA        CLEAR     37  22  54 NW9       30.11R WCI  30
ATHENS         CLEAR     37  20  50 W6        30.09R WCI  32
CHAMBLEE       FLURRIES  37  19  48 NW9       30.11R WCI  30
PEACHTREE CITY CLEAR     35  26  69 NW6       30.13R WCI  30
ROME           CLEAR     35  21  56 NW6       30.16R WCI  30
WEST ATLANTA   CLEAR     37  19  48 N5        30.12R WCI  33
GAINESVILLE    CLEAR     36  19  50 NW9       30.09R WCI  29
CARTERSVILLE   CLEAR     33  22  63 CALM      30.15R


CITY           SKY/WX    TMP DP  RH WIND       PRES   REMARKS
DALTON*        CLEAR     32  25  74 CALM      30.16R
MARIETTA       CLEAR     37  19  49 NW9       30.11R WCI  30
CANTON*        CLEAR     34  18  51 W3        30.12R
$$

GAZ059>098-102>109-261100-
CENTRAL GEORGIA

CITY           SKY/WX    TMP DP  RH WIND       PRES   REMARKS
AUGUSTA-BUSH   CLEAR     43  24  47 W5        30.08R
AUGUSTA-DANIEL CLEAR     45  19  35 NW9       30.08R
COLUMBUS       CLEAR     40  24  53 CALM      30.14R
MACON          CLEAR     37  28  70 W5        30.12R WCI  33
ROBINS AFB     CLEAR     40  25  54 CALM      30.12R


CITY           SKY/WX    TMP DP  RH WIND       PRES   REMARKS
LAGRANGE*      CLEAR     32  31  94 CALM      30.14R
SYLVANIA*      CLEAR    N/A N/A N/A NW3       30.10R
MILLEDGEVILLE* CLEAR     43  28  56 NW5       30.11R
$$

GAZ099>101-110>166-261100-
SOUTH GEORGIA

CITY           SKY/WX    TMP DP  RH WIND       PRES   REMARKS
SAVANNAH       CLEAR     46  28  49 W5        30.09R
VALDOSTA       CLEAR     36  30  79 CALM      30.11R
ALMA           CLEAR     41  30  65 CALM      30.11R
ST SIMONS      CLEAR     51  26  37 NW6       30.10R
FT STEWART     CLEAR     46  27  47 CALM      30.08R
ALBANY         CLEAR     44  26  49 N3        30.14R
HUNTER AFB     CLEAR     47  29  49 CALM      30.07R
MOODY AFB      CLEAR     44  27  51 N5        30.10R
BRUNSWICK      CLEAR     50  32  50 NW3       30.11R


CITY           SKY/WX    TMP DP  RH WIND       PRES   REMARKS
BAINBRIDGE*    CLEAR     45  32  61 CALM      30.14R
MOULTRIE*      CLEAR     45  30  57 N3        30.13R
VIDALIA*       CLEAR     45  32  61 NW5       30.11R
WAYCROSS*      CLEAR     47  32  56 N3        30.12R
DOUGLAS*       CLEAR     46  23  39 N5        30.13R
$$




USA.gov is the U.S. government's official web portal to all federal, state and local government web resources and services.